Regional Weather Roundup
Issued by NWS

Home | Current Version | Previous Version | Graphics & Text | Print | Product List | Glossary On
Versions: 1 2 3 4 5 6 7 8 9 10 11 12 13 14 15 16 17 18 19 20 21 22 23 24 25 26 27 28
000
ASUS45 KCYS 211810
RWRWY

WYOMING REGIONAL WEATHER ROUNDUP
NATIONAL WEATHER SERVICE CHEYENNE WY
1100 AM MST TUE FEB 21 2017

NOTE:  "FAIR" INDICATES FEW OR NO CLOUDS BELOW 12,000 FEET
WITH NO SIGNIFICANT WEATHER AND/OR OBSTRUCTIONS TO VISIBILITY.

WYZ001-211900-
YELLOWSTONE NATIONAL PARK

CITY           SKY/WX    TMP DP  RH WIND       PRES   REMARKS
LK YELLOWSTONE   N/A     32  28  85 VRB7G21   29.90R WCI  26
6HR MIN TEMP:  30; 6HR MAX TEMP:  33; 6HR PCP:  0.24;

W YELLOWSTONE  NOT AVBL

$$
WYZ002>013-054>058-071-098>099-211900-
NORTHERN WYOMING

CITY           SKY/WX    TMP DP  RH WIND       PRES   REMARKS
JACKSON        FAIR      43  27  52 SW35G44   29.90F
CODY           FAIR      48  36  63 SW13G21   29.81F
GREYBULL       FAIR      46  33  60 E6        29.79S
6HR MIN TEMP:  33; 6HR MAX TEMP:  46;

WORLAND        FAIR      56  37  49 SW21G33   29.79S
6HR MIN TEMP:  35; 6HR MAX TEMP:  56;

SHERIDAN       CLOUDY    59  30  33 SW25G35   29.75R
6HR MIN TEMP:  38; 6HR MAX TEMP:  60;

BUFFALO        FAIR      59  31  34 SW23G32   29.77F
6HR MIN TEMP:  43; 6HR MAX TEMP:  59;

GILLETTE       FAIR      61  32  33 W28G36    29.78R
6HR MIN TEMP:  46; 6HR MAX TEMP:  61;

HULETT         FAIR      61  32  33 W16G24    29.78S
NEWCASTLE      FAIR      61  30  31 W25G32    29.84F

$$
WYZ014>020-022>026-101>103-211900-
CENTRAL WYOMING

CITY           SKY/WX    TMP DP  RH WIND       PRES   REMARKS
BIG PINEY      PTSUNNY   36  33  89 SW12      30.01F WCI  28
6HR MIN TEMP:  35; 6HR MAX TEMP:  37; 6HR PCP: TRACE;

PINEDALE       LGT RAIN  34  32  93 SW14      30.03S WCI  24
DUBOIS         LGT SNOW  36  32  87 N16G29    29.88R WCI  26
LANDER         LGT RAIN  49  30  48 W23G30    29.90F
6HR MIN TEMP:  45; 6HR MAX TEMP:  52; 6HR PCP: TRACE;

RIVERTON       FAIR      50  34  54 W8G17     29.90F
6HR MIN TEMP:  39; 6HR MAX TEMP:  50;

CASPER         FAIR      57  29  34 SW39G54   29.91S
6HR MIN TEMP:  43; 6HR MAX TEMP:  57; 6HR PCP: TRACE;

DOUGLAS        FAIR      61  28  28 W38G51    29.91R
6HR MIN TEMP:  51; 6HR MAX TEMP:  61;


$$
WYZ021-027>030-104>119-211900-
SOUTHERN WYOMING

CITY           SKY/WX    TMP DP  RH WIND       PRES   REMARKS
EVANSTON       FAIR      41  30  65 SW29      30.05S
6HR MIN TEMP:  38; 6HR MAX TEMP:  42;

KEMMERER         N/A     41  32  70 SW25      30.05S
FORT BRIDGER   FAIR      47  30  53 SW20G25   30.09S
ROCK SPRINGS   FAIR      49  30  48 S23G29    30.05F
6HR MIN TEMP:  37; 6HR MAX TEMP:  49;

DIXON            N/A     50  33  51 SW23G31   30.18R
RAWLINS        CLOUDY    46  31  55 SW28G37   30.10R
6HR MIN TEMP:  39; 6HR MAX TEMP:  46;

SARATOGA       FAIR      50  30  46 SW29G37   30.13S
LARAMIE        FAIR      50  25  37 SW41G54   30.05F
6HR MIN TEMP:  36; 6HR MAX TEMP:  50;

CHEYENNE       FAIR      59  21  23 W40G53    30.06R
6HR MIN TEMP:  46; 6HR MAX TEMP:  60;

TORRINGTON     FAIR      67  22  18 W33G46    29.90R
6HR MIN TEMP:  33; 6HR MAX TEMP:  67;

PINE BLUFFS    FAIR      63  19  19 MISG      29.97S

$$




USA.gov is the U.S. government's official web portal to all federal, state and local government web resources and services.